QPF
0.07 0.07 0.08 0.08 0.06 0.06 0.09 0.10 0.08 0.09 0.13 0.16 0.18 0.13 0.04 0.04 0.04 0.04 0.04 0.02 0.02 0.02 0.02 0.02 0.03 0.04 0.05 0.04 0.04 0.03 0.02 0.03 0.03 0.03 0.03 0.04 0.03 0.03 0.03 0.02 0.03 0.04 0.05
0.06 0.05 0.06 0.07 0.06 0.06 0.08 0.10 0.08 0.09 0.11 0.16 0.19 0.15 0.08 0.06 0.06 0.07 0.06 0.04 0.03 0.02 0.02 0.02 0.02 0.03 0.04 0.04 0.05 0.04 0.03 0.02 0.03 0.02 0.02 0.03 0.02 0.02 0.02 0.02 0.03 0.03 0.03
0.08 0.08 0.07 0.07 0.08 0.07 0.08 0.08 0.07 0.08 0.09 0.12 0.15 0.13 0.12 0.11 0.09 0.08 0.07 0.05 0.03 0.02 0.02 0.01 0.02 0.03 0.03 0.03 0.03 0.03 0.03 0.03 0.02 0.01 0.02 0.02 0.02 0.02 0.02 0.03 0.03 0.03 0.03
0.07 0.09 0.08 0.06 0.06 0.07 0.07 0.09 0.09 0.09 0.08 0.09 0.10 0.11 0.12 0.13 0.11 0.07 0.05 0.05 0.04 0.04 0.03 0.02 0.02 0.02 0.02 0.03 0.02 0.02 0.03 0.03 0.02 0.02 0.01 0.01 0.02 0.03 0.03 0.04 0.05 0.04 0.02
0.06 0.07 0.07 0.07 0.06 0.07 0.08 0.07 0.13 0.12 0.09 0.08 0.06 0.06 0.06 0.08 0.09 0.06 0.05 0.08 0.07 0.05 0.06 0.04 0.02 0.03 0.03 0.03 0.03 0.03 0.03 0.04 0.03 0.03 0.02 0.02 0.02 0.03 0.03 0.04 0.04 0.06 0.04
0.04 0.05 0.06 0.04 0.05 0.06 0.07 0.07 0.11 0.10 0.08 0.07 0.05 0.05 0.04 0.05 0.07 0.07 0.06 0.09 0.08 0.06 0.05 0.06 0.05 0.04 0.05 0.05 0.05 0.05 0.05 0.05 0.04 0.03 0.03 0.02 0.03 0.05 0.04 0.05 0.06 0.05 0.05
0.03 0.05 0.04 0.03 0.04 0.05 0.06 0.06 0.07 0.07 0.07 0.07 0.08 0.07 0.05 0.04 0.05 0.06 0.06 0.06 0.05 0.05 0.05 0.06 0.07 0.06 0.06 0.07 0.07 0.05 0.05 0.06 0.06 0.05 0.04 0.03 0.04 0.06 0.07 0.06 0.07 0.06 0.06
0.04 0.05 0.05 0.05 0.06 0.06 0.07 0.06 0.09 0.09 0.07 0.07 0.09 0.13 0.12 0.10 0.07 0.05 0.05 0.06 0.05 0.05 0.03 0.04 0.05 0.06 0.06 0.06 0.07 0.06 0.03 0.02 0.03 0.03 0.04 0.04 0.05 0.07 0.10 0.12 0.12 0.11 0.10
0.03 0.03 0.04 0.05 0.07 0.05 0.06 0.08 0.07 0.08 0.08 0.07 0.08 0.09 0.12 0.13 0.10 0.07 0.06 0.04 0.04 0.05 0.04 0.05 0.04 0.05 0.08 0.11 0.09 0.06 0.03 0.03 0.03 0.02 0.02 0.03 0.03 0.03 0.05 0.09 0.10 0.12 0.12
0.04 0.03 0.03 0.04 0.06 0.05 0.07 0.06 0.06 0.07 0.08 0.08 0.08 0.06 0.06 0.09 0.10 0.09 0.07 0.05 0.04 0.03 0.03 0.03 0.03 0.05 0.07 0.08 0.08 0.04 0.03 0.02 0.01 0.01 0.02 0.03 0.02 0.02 0.03 0.05 0.06 0.07 0.07
0.04 0.03 0.02 0.03 0.03 0.04 0.05 0.04 0.05 0.05 0.05 0.06 0.05 0.04 0.06 0.07 0.08 0.09 0.08 0.06 0.04 0.03 0.02 0.02 0.02 0.02 0.04 0.08 0.10 0.06 0.03 0.03 0.02 0.01 0.02 0.03 0.03 0.03 0.02 0.04 0.05 0.05 0.05
0.03 0.02 0.02 0.02 0.02 0.03 0.03 0.03 0.04 0.04 0.04 0.05 0.05 0.04 0.05 0.06 0.06 0.07 0.08 0.07 0.06 0.04 0.03 0.02 0.02 0.03 0.04 0.04 0.06 0.06 0.03 0.03 0.03 0.02 0.03 0.02 0.02 0.03 0.03 0.03 0.04 0.04 0.05
0.01 0.02 0.02 0.02 0.02 0.02 0.02 0.03 0.03 0.04 0.04 0.04 0.04 0.04 0.03 0.03 0.04 0.04 0.06 0.07 0.06 0.04 0.03 0.02 0.02 0.03 0.03 0.05 0.07 0.06 0.03 0.04 0.02 0.02 0.02 0.02 0.02 0.02 0.02 0.02 0.03 0.04 0.05
0.01 0.01 0.02 0.02 0.02 0.02 0.02 0.03 0.03 0.04 0.04 0.04 0.03 0.04 0.03 0.02 0.03 0.03 0.04 0.07 0.06 0.05 0.05 0.03 0.02 0.02 0.03 0.04 0.06 0.05 0.04 0.05 0.03 0.02 0.01 0.02 0.02 0.03 0.02 0.02 0.03 0.03 0.04
0.01 0.01 0.01 0.02 0.01 0.01 0.02 0.03 0.04 0.04 0.05 0.05 0.04 0.05 0.05 0.03 0.02 0.02 0.03 0.04 0.06 0.08 0.07 0.08 0.08 0.04 0.02 0.03 0.04 0.04 0.05 0.05 0.03 0.02 0.01 0.01 0.02 0.02 0.01 0.02 0.03 0.02 0.03
0.02 0.02 0.02 0.02 0.02 0.02 0.02 0.02 0.03 0.03 0.04 0.05 0.05 0.06 0.06 0.04 0.03 0.03 0.03 0.04 0.05 0.08 0.09 0.07 0.08 0.05 0.04 0.03 0.03 0.04 0.05 0.04 0.03 0.02 0.02 0.01 0.01 0.02 0.02 0.01 0.02 0.01 0.02
0.03 0.03 0.03 0.03 0.03 0.03 0.03 0.03 0.03 0.04 0.05 0.05 0.05 0.06 0.07 0.07 0.06 0.06 0.06 0.06 0.06 0.07 0.08 0.06 0.05 0.05 0.05 0.05 0.04 0.05 0.06 0.04 0.03 0.04 0.02 0.01 0.01 0.01 0.02 0.02 0.02 0.01 0.01
0.02 0.03 0.04 0.04 0.04 0.04 0.03 0.04 0.04 0.05 0.07 0.07 0.06 0.07 0.08 0.09 0.10 0.09 0.09 0.08 0.07 0.07 0.07 0.08 0.07 0.06 0.06 0.05 0.06 0.06 0.07 0.06 0.04 0.04 0.03 0.02 0.02 0.02 0.03 0.03 0.02 0.02 0.01
0.03 0.03 0.03 0.04 0.05 0.05 0.04 0.04 0.05 0.04 0.04 0.04 0.05 0.07 0.08 0.09 0.10 0.10 0.09 0.08 0.07 0.05 0.06 0.07 0.08 0.07 0.06 0.05 0.07 0.06 0.07 0.09 0.05 0.06 0.05 0.04 0.03 0.03 0.03 0.04 0.02 0.02 0.02
0.03 0.03 0.03 0.04 0.04 0.04 0.04 0.04 0.04 0.03 0.03 0.04 0.05 0.06 0.06 0.06 0.06 0.08 0.08 0.08 0.07 0.06 0.05 0.05 0.06 0.06 0.06 0.05 0.06 0.07 0.08 0.09 0.07 0.04 0.04 0.04 0.04 0.03 0.03 0.04 0.02 0.01 0.01
0.03 0.03 0.03 0.02 0.02 0.02 0.02 0.03 0.05 0.06 0.07 0.07 0.06 0.05 0.04 0.05 0.05 0.05 0.04 0.06 0.07 0.06 0.06 0.07 0.06 0.07 0.06 0.07 0.06 0.05 0.06 0.06 0.06 0.05 0.04 0.03 0.03 0.03 0.03 0.04 0.03 0.02 0.01
0.04 0.05 0.04 0.04 0.04 0.03 0.04 0.04 0.05 0.06 0.07 0.06 0.06 0.06 0.04 0.03 0.03 0.02 0.01 0.02 0.02 0.04 0.08 0.08 0.07 0.07 0.07 0.06 0.05 0.05 0.06 0.06 0.06 0.06 0.08 0.06 0.04 0.04 0.03 0.04 0.05 0.04 0.03
0.07 0.07 0.06 0.06 0.06 0.06 0.05 0.04 0.04 0.04 0.04 0.05 0.06 0.05 0.04 0.02 0.03 0.02 0.02 0.01 0.01 0.02 0.04 0.06 0.07 0.06 0.06 0.06 0.05 0.04 0.05 0.06 0.06 0.05 0.07 0.06 0.06 0.06 0.03 0.02 0.05 0.05 0.05
0.08 0.09 0.10 0.09 0.08 0.07 0.07 0.04 0.03 0.03 0.03 0.04 0.05 0.05 0.05 0.04 0.03 0.03 0.03 0.03 0.03 0.03 0.02 0.02 0.04 0.05 0.04 0.04 0.04 0.04 0.04 0.04 0.04 0.03 0.05 0.05 0.05 0.06 0.05 0.04 0.04 0.05 0.06
0.08 0.09 0.10 0.09 0.08 0.08 0.07 0.05 0.04 0.04 0.03 0.03 0.04 0.04 0.04 0.04 0.03 0.02 0.02 0.03 0.04 0.04 0.02 0.01 0.01 0.02 0.03 0.02 0.02 0.03 0.04 0.04 0.03 0.03 0.05 0.05 0.05 0.05 0.07 0.06 0.05 0.06 0.07
0.08 0.08 0.08 0.08 0.08 0.07 0.07 0.06 0.05 0.04 0.03 0.03 0.04 0.04 0.03 0.02 0.01 0.01 0.02 0.03 0.04 0.03 0.03 0.02 0.02 0.02 0.03 0.02 0.02 0.02 0.03 0.04 0.04 0.03 0.04 0.04 0.05 0.07 0.07 0.06 0.07 0.07 0.07
MSLP
1000.04 999.56 998.96 998.21 997.24 996.00 994.45 992.60 990.51 988.31 986.19 984.37 983.06 982.42 982.54 983.42 984.93 986.92 989.14 991.37 993.43 995.21 996.69 997.90 998.93 999.88 1000.81 1001.79 1002.79 1003.77 1004.69 1005.48 1006.10 1006.57 1006.93 1007.22 1007.51 1007.83 1008.20 1008.59 1008.94 1009.21 1009.33
1000.30 999.79 999.18 998.43 997.49 996.31 994.86 993.15 991.24 989.26 987.37 985.76 984.62 984.09 984.23 985.02 986.37 988.13 990.07 992.01 993.80 995.36 996.68 997.79 998.77 999.70 1000.64 1001.62 1002.63 1003.61 1004.51 1005.28 1005.90 1006.37 1006.73 1007.04 1007.35 1007.69 1008.06 1008.46 1008.82 1009.10 1009.24
1000.52 1000.01 999.43 998.74 997.89 996.85 995.60 994.12 992.50 990.82 989.24 987.92 987.00 986.59 986.75 987.44 988.58 990.03 991.61 993.18 994.63 995.89 996.98 997.92 998.80 999.68 1000.59 1001.55 1002.54 1003.50 1004.38 1005.13 1005.73 1006.20 1006.57 1006.89 1007.21 1007.57 1007.96 1008.37 1008.76 1009.06 1009.24
1000.70 1000.22 999.69 999.10 998.39 997.53 996.51 995.32 994.01 992.68 991.44 990.42 989.74 989.47 989.65 990.24 991.16 992.30 993.51 994.69 995.77 996.71 997.53 998.28 999.03 999.82 1000.68 1001.60 1002.55 1003.47 1004.31 1005.03 1005.61 1006.07 1006.44 1006.77 1007.11 1007.49 1007.90 1008.32 1008.73 1009.06 1009.29
1000.88 1000.43 999.97 999.48 998.91 998.24 997.44 996.52 995.52 994.50 993.58 992.85 992.39 992.26 992.47 992.98 993.71 994.57 995.46 996.29 997.03 997.68 998.25 998.82 999.43 1000.12 1000.90 1001.76 1002.65 1003.53 1004.32 1004.99 1005.54 1005.99 1006.35 1006.70 1007.05 1007.44 1007.86 1008.30 1008.72 1009.07 1009.34
1001.09 1000.67 1000.28 999.87 999.43 998.91 998.29 997.57 996.81 996.05 995.38 994.88 994.61 994.61 994.85 995.31 995.91 996.57 997.21 997.78 998.26 998.68 999.06 999.47 999.96 1000.55 1001.26 1002.04 1002.86 1003.66 1004.39 1005.01 1005.53 1005.95 1006.32 1006.67 1007.03 1007.42 1007.85 1008.29 1008.71 1009.08 1009.38
1001.40 1001.00 1000.65 1000.31 999.94 999.51 999.00 998.42 997.80 997.21 996.71 996.37 996.23 996.32 996.60 997.05 997.57 998.11 998.61 999.02 999.34 999.61 999.88 1000.18 1000.57 1001.08 1001.70 1002.40 1003.13 1003.85 1004.51 1005.08 1005.56 1005.96 1006.32 1006.67 1007.04 1007.43 1007.85 1008.28 1008.69 1009.06 1009.38
1001.84 1001.46 1001.14 1000.82 1000.48 1000.09 999.61 999.08 998.53 998.00 997.58 997.33 997.26 997.41 997.73 998.17 998.68 999.17 999.61 999.95 1000.22 1000.43 1000.63 1000.88 1001.22 1001.66 1002.19 1002.81 1003.45 1004.08 1004.66 1005.17 1005.61 1006.00 1006.35 1006.70 1007.07 1007.45 1007.86 1008.26 1008.65 1009.01 1009.33
1002.43 1002.06 1001.75 1001.44 1001.10 1000.69 1000.21 999.66 999.09 998.57 998.16 997.92 997.87 998.03 998.36 998.82 999.33 999.82 1000.26 1000.61 1000.87 1001.09 1001.29 1001.52 1001.82 1002.20 1002.67 1003.20 1003.75 1004.29 1004.80 1005.26 1005.66 1006.03 1006.39 1006.74 1007.10 1007.48 1007.87 1008.25 1008.61 1008.94 1009.25
1003.13 1002.78 1002.46 1002.15 1001.80 1001.36 1000.85 1000.26 999.65 999.09 998.64 998.36 998.29 998.43 998.75 999.19 999.70 1000.21 1000.67 1001.05 1001.35 1001.59 1001.81 1002.04 1002.32 1002.67 1003.07 1003.52 1003.99 1004.45 1004.89 1005.31 1005.69 1006.05 1006.41 1006.77 1007.13 1007.51 1007.87 1008.22 1008.55 1008.86 1009.15
1003.87 1003.54 1003.24 1002.93 1002.56 1002.11 1001.57 1000.95 1000.30 999.69 999.19 998.86 998.74 998.82 999.10 999.51 999.99 1000.49 1000.96 1001.36 1001.69 1001.95 1002.19 1002.43 1002.69 1002.99 1003.34 1003.72 1004.12 1004.52 1004.91 1005.29 1005.67 1006.03 1006.40 1006.78 1007.15 1007.52 1007.88 1008.21 1008.51 1008.78 1009.05
1004.57 1004.26 1003.98 1003.69 1003.34 1002.90 1002.36 1001.74 1001.08 1000.45 999.91 999.53 999.35 999.36 999.56 999.90 1000.33 1000.78 1001.21 1001.60 1001.92 1002.19 1002.43 1002.65 1002.90 1003.16 1003.46 1003.79 1004.13 1004.49 1004.85 1005.21 1005.59 1005.97 1006.36 1006.76 1007.15 1007.53 1007.88 1008.20 1008.48 1008.73 1008.98
1005.15 1004.87 1004.63 1004.37 1004.06 1003.66 1003.16 1002.58 1001.95 1001.34 1000.80 1000.39 1000.15 1000.09 1000.19 1000.43 1000.76 1001.12 1001.48 1001.80 1002.08 1002.32 1002.53 1002.74 1002.95 1003.18 1003.44 1003.73 1004.03 1004.36 1004.71 1005.07 1005.46 1005.86 1006.28 1006.71 1007.13 1007.53 1007.88 1008.20 1008.46 1008.70 1008.93
1005.56 1005.33 1005.12 1004.91 1004.66 1004.33 1003.91 1003.41 1002.85 1002.29 1001.78 1001.37 1001.09 1000.96 1000.97 1001.09 1001.29 1001.53 1001.78 1002.01 1002.21 1002.39 1002.56 1002.72 1002.90 1003.10 1003.33 1003.59 1003.87 1004.18 1004.53 1004.90 1005.30 1005.73 1006.18 1006.64 1007.08 1007.50 1007.87 1008.19 1008.46 1008.69 1008.91
1005.81 1005.61 1005.45 1005.29 1005.11 1004.87 1004.55 1004.15 1003.69 1003.21 1002.76 1002.37 1002.08 1001.90 1001.82 1001.82 1001.89 1002.00 1002.12 1002.24 1002.34 1002.45 1002.55 1002.67 1002.82 1002.99 1003.20 1003.44 1003.71 1004.01 1004.35 1004.73 1005.15 1005.59 1006.06 1006.54 1007.01 1007.44 1007.83 1008.16 1008.44 1008.67 1008.89
1005.94 1005.77 1005.65 1005.54 1005.43 1005.27 1005.05 1004.76 1004.41 1004.04 1003.66 1003.32 1003.04 1002.82 1002.67 1002.58 1002.54 1002.52 1002.52 1002.52 1002.53 1002.56 1002.61 1002.68 1002.80 1002.95 1003.14 1003.36 1003.62 1003.92 1004.25 1004.62 1005.03 1005.47 1005.94 1006.42 1006.89 1007.34 1007.74 1008.09 1008.38 1008.62 1008.84
1006.03 1005.88 1005.78 1005.72 1005.65 1005.56 1005.42 1005.23 1004.99 1004.71 1004.42 1004.14 1003.88 1003.66 1003.47 1003.32 1003.19 1003.08 1002.97 1002.89 1002.82 1002.79 1002.79 1002.83 1002.92 1003.05 1003.23 1003.43 1003.68 1003.95 1004.25 1004.59 1004.97 1005.38 1005.82 1006.28 1006.74 1007.17 1007.58 1007.93 1008.24 1008.50 1008.73
1006.14 1006.01 1005.94 1005.90 1005.86 1005.82 1005.74 1005.62 1005.45 1005.26 1005.04 1004.82 1004.61 1004.40 1004.21 1004.02 1003.84 1003.67 1003.51 1003.37 1003.25 1003.17 1003.14 1003.16 1003.23 1003.35 1003.50 1003.68 1003.89 1004.12 1004.38 1004.66 1004.98 1005.33 1005.71 1006.12 1006.53 1006.94 1007.33 1007.68 1008.00 1008.28 1008.53
1006.33 1006.22 1006.16 1006.13 1006.10 1006.08 1006.03 1005.95 1005.84 1005.70 1005.55 1005.38 1005.21 1005.04 1004.86 1004.68 1004.49 1004.30 1004.12 1003.95 1003.81 1003.72 1003.66 1003.67 1003.72 1003.81 1003.94 1004.09 1004.25 1004.43 1004.62 1004.83 1005.06 1005.32 1005.62 1005.94 1006.29 1006.64 1007.00 1007.34 1007.66 1007.96 1008.24
1006.58 1006.50 1006.45 1006.42 1006.40 1006.37 1006.32 1006.25 1006.17 1006.06 1005.95 1005.83 1005.71 1005.57 1005.43 1005.28 1005.11 1004.93 1004.76 1004.59 1004.46 1004.36 1004.30 1004.29 1004.33 1004.40 1004.50 1004.61 1004.72 1004.83 1004.94 1005.06 1005.19 1005.35 1005.54 1005.77 1006.02 1006.31 1006.61 1006.93 1007.24 1007.55 1007.86
1006.88 1006.82 1006.78 1006.75 1006.71 1006.67 1006.61 1006.53 1006.45 1006.36 1006.27 1006.18 1006.10 1006.01 1005.91 1005.79 1005.66 1005.52 1005.37 1005.23 1005.10 1005.01 1004.96 1004.94 1004.96 1005.01 1005.08 1005.14 1005.20 1005.25 1005.28 1005.32 1005.35 1005.41 1005.49 1005.62 1005.78 1005.98 1006.22 1006.49 1006.78 1007.10 1007.42
1007.17 1007.13 1007.10 1007.06 1007.01 1006.94 1006.86 1006.77 1006.67 1006.58 1006.50 1006.43 1006.38 1006.32 1006.26 1006.19 1006.10 1006.00 1005.88 1005.76 1005.66 1005.58 1005.53 1005.50 1005.51 1005.54 1005.57 1005.61 1005.62 1005.62 1005.60 1005.56 1005.52 1005.49 1005.49 1005.52 1005.59 1005.71 1005.88 1006.09 1006.35 1006.65 1006.97
1007.37 1007.35 1007.33 1007.29 1007.23 1007.14 1007.04 1006.93 1006.82 1006.72 1006.64 1006.58 1006.54 1006.51 1006.48 1006.44 1006.39 1006.31 1006.23 1006.14 1006.05 1005.97 1005.92 1005.89 1005.89 1005.90 1005.92 1005.92 1005.92 1005.89 1005.84 1005.77 1005.68 1005.60 1005.54 1005.50 1005.49 1005.54 1005.64 1005.79 1006.00 1006.26 1006.57
1007.45 1007.44 1007.43 1007.39 1007.33 1007.23 1007.11 1006.99 1006.87 1006.76 1006.68 1006.63 1006.59 1006.57 1006.56 1006.54 1006.51 1006.46 1006.39 1006.31 1006.23 1006.16 1006.11 1006.07 1006.06 1006.05 1006.06 1006.06 1006.06 1006.03 1005.98 1005.91 1005.82 1005.72 1005.63 1005.56 1005.52 1005.51 1005.55 1005.64 1005.79 1005.99 1006.25
1007.37 1007.38 1007.38 1007.34 1007.29 1007.20 1007.09 1006.96 1006.84 1006.74 1006.65 1006.59 1006.56 1006.54 1006.53 1006.51 1006.49 1006.44 1006.38 1006.31 1006.24 1006.16 1006.10 1006.06 1006.04 1006.03 1006.04 1006.05 1006.05 1006.04 1006.02 1005.98 1005.92 1005.85 1005.77 1005.70 1005.64 1005.60 1005.60 1005.64 1005.72 1005.86 1006.06
1007.17 1007.18 1007.19 1007.17 1007.13 1007.06 1006.98 1006.87 1006.77 1006.67 1006.59 1006.53 1006.49 1006.46 1006.44 1006.42 1006.39 1006.34 1006.28 1006.21 1006.13 1006.05 1005.99 1005.93 1005.90 1005.89 1005.90 1005.92 1005.95 1005.97 1005.99 1005.99 1005.99 1005.96 1005.93 1005.88 1005.84 1005.79 1005.77 1005.76 1005.79 1005.87 1005.99
Thickness
5791 5790 5789 5789 5789 5788 5787 5786 5786 5787 5787 5787 5787 5787 5786 5785 5783 5780 5776 5773 5771 5769 5766 5764 5762 5760 5758 5756 5754 5753 5751 5749 5748 5747 5746 5745 5744 5743 5742 5741 5740 5739 5738
5792 5791 5790 5789 5790 5790 5789 5788 5788 5787 5787 5787 5787 5787 5786 5785 5783 5781 5777 5774 5772 5769 5767 5765 5763 5761 5758 5756 5755 5753 5751 5749 5748 5746 5745 5744 5743 5742 5742 5741 5739 5739 5738
5793 5792 5791 5790 5790 5791 5791 5790 5789 5789 5787 5786 5786 5787 5787 5786 5784 5782 5779 5776 5772 5770 5767 5765 5763 5761 5759 5757 5755 5753 5751 5749 5748 5746 5745 5744 5743 5742 5741 5740 5739 5739 5738
5794 5792 5791 5791 5791 5791 5791 5790 5789 5787 5786 5785 5784 5786 5786 5785 5784 5783 5780 5778 5775 5772 5768 5766 5763 5761 5759 5757 5755 5753 5751 5749 5747 5746 5745 5744 5743 5742 5741 5740 5740 5739 5738
5794 5792 5791 5791 5792 5791 5791 5790 5788 5786 5783 5783 5784 5785 5785 5784 5783 5783 5781 5779 5776 5773 5770 5767 5764 5761 5759 5756 5755 5753 5751 5749 5747 5746 5745 5744 5743 5742 5741 5740 5740 5739 5738
5794 5792 5791 5791 5791 5789 5788 5787 5785 5785 5784 5783 5784 5783 5783 5784 5783 5782 5781 5779 5776 5774 5771 5768 5764 5761 5758 5756 5754 5752 5750 5748 5747 5746 5744 5743 5742 5742 5741 5741 5740 5739 5738
5793 5792 5792 5790 5789 5787 5786 5786 5784 5783 5782 5783 5779 5777 5780 5783 5782 5780 5780 5778 5776 5774 5772 5769 5765 5762 5759 5756 5754 5751 5749 5748 5746 5745 5744 5743 5742 5741 5741 5741 5741 5740 5739
5793 5793 5790 5790 5789 5787 5785 5785 5783 5780 5781 5782 5776 5770 5766 5769 5775 5779 5777 5775 5774 5773 5770 5768 5765 5762 5759 5756 5754 5751 5748 5747 5746 5744 5743 5742 5741 5740 5740 5740 5740 5740 5738
5793 5792 5791 5790 5789 5787 5784 5784 5783 5779 5776 5779 5780 5772 5762 5757 5763 5770 5773 5773 5772 5770 5768 5767 5764 5762 5759 5756 5753 5749 5747 5746 5745 5743 5742 5741 5739 5739 5738 5737 5737 5737 5736
5792 5792 5791 5789 5788 5787 5785 5784 5783 5781 5777 5774 5776 5777 5774 5770 5760 5757 5764 5768 5769 5767 5766 5765 5763 5760 5758 5754 5751 5749 5746 5744 5743 5742 5740 5739 5738 5737 5736 5734 5734 5734 5733
5791 5791 5789 5788 5786 5785 5784 5783 5781 5780 5778 5774 5773 5774 5772 5770 5767 5757 5752 5757 5761 5764 5764 5762 5761 5759 5756 5751 5749 5746 5744 5742 5740 5739 5738 5736 5735 5734 5733 5732 5731 5731 5731
5789 5789 5788 5786 5785 5783 5782 5781 5779 5778 5776 5774 5773 5772 5769 5765 5762 5759 5754 5753 5753 5757 5760 5760 5758 5756 5753 5750 5748 5744 5742 5740 5737 5736 5735 5734 5733 5732 5731 5730 5728 5728 5728
5786 5786 5787 5784 5782 5781 5781 5779 5777 5775 5774 5772 5770 5770 5769 5768 5767 5763 5756 5751 5750 5752 5755 5755 5755 5753 5750 5747 5743 5741 5739 5737 5735 5734 5732 5731 5730 5729 5727 5726 5725 5724 5724
5785 5786 5784 5782 5781 5780 5779 5777 5775 5773 5772 5769 5769 5767 5766 5766 5766 5763 5757 5750 5743 5744 5745 5747 5750 5750 5747 5744 5740 5738 5735 5733 5732 5731 5730 5728 5727 5726 5724 5723 5722 5721 5720
5785 5784 5782 5780 5778 5777 5775 5774 5771 5769 5768 5766 5765 5764 5762 5762 5762 5761 5759 5753 5743 5733 5733 5739 5741 5744 5742 5740 5737 5734 5732 5730 5729 5727 5726 5725 5724 5723 5721 5719 5718 5717 5716
5782 5780 5779 5777 5775 5773 5771 5770 5768 5766 5764 5762 5761 5759 5757 5757 5756 5755 5754 5751 5747 5738 5731 5735 5735 5737 5737 5736 5733 5731 5729 5727 5726 5724 5723 5722 5720 5719 5717 5715 5714 5713 5712
5779 5777 5775 5773 5771 5769 5767 5765 5764 5762 5759 5757 5756 5754 5752 5751 5749 5748 5747 5745 5742 5737 5729 5730 5732 5732 5731 5729 5727 5726 5725 5724 5722 5721 5720 5718 5716 5715 5713 5712 5710 5709 5709
5775 5774 5771 5769 5767 5765 5763 5760 5758 5757 5755 5753 5751 5748 5746 5746 5743 5741 5739 5737 5735 5733 5727 5722 5723 5724 5723 5722 5721 5721 5721 5720 5718 5717 5716 5714 5712 5711 5709 5708 5706 5705 5705
5771 5769 5767 5764 5762 5760 5757 5755 5753 5751 5750 5748 5746 5743 5741 5738 5735 5734 5732 5730 5728 5727 5723 5718 5716 5718 5717 5717 5715 5715 5716 5714 5714 5713 5711 5710 5708 5706 5705 5704 5702 5701 5701
5766 5764 5762 5759 5757 5754 5752 5749 5747 5745 5744 5742 5740 5738 5735 5733 5729 5728 5726 5723 5721 5718 5716 5713 5711 5711 5709 5709 5707 5704 5704 5705 5706 5707 5706 5704 5703 5702 5701 5700 5698 5697 5696
5761 5758 5755 5753 5751 5749 5746 5742 5740 5739 5737 5734 5733 5731 5729 5726 5724 5721 5720 5716 5713 5710 5707 5705 5703 5701 5700 5698 5697 5698 5696 5697 5698 5700 5698 5698 5696 5695 5695 5694 5693 5692 5691
5755 5752 5749 5747 5744 5743 5739 5737 5734 5732 5730 5727 5725 5723 5722 5719 5717 5714 5712 5710 5707 5703 5699 5697 5695 5693 5692 5692 5691 5690 5689 5687 5685 5691 5690 5689 5691 5690 5690 5690 5689 5688 5686
5749 5746 5744 5741 5737 5734 5732 5729 5727 5726 5724 5721 5719 5716 5715 5713 5710 5706 5704 5702 5700 5698 5695 5692 5689 5687 5686 5686 5684 5682 5681 5680 5679 5682 5682 5680 5684 5683 5686 5687 5685 5683 5682
5743 5740 5737 5734 5731 5727 5724 5722 5720 5719 5718 5715 5713 5711 5707 5703 5702 5699 5698 5695 5694 5692 5690 5688 5686 5684 5683 5681 5679 5678 5676 5676 5677 5677 5677 5672 5675 5676 5679 5679 5679 5678 5676
5736 5734 5731 5728 5725 5721 5718 5716 5713 5713 5711 5709 5707 5704 5701 5697 5694 5693 5690 5688 5687 5686 5685 5683 5681 5680 5678 5676 5674 5671 5669 5667 5665 5667 5670 5667 5668 5668 5670 5671 5671 5670 5669
5730 5728 5726 5723 5719 5716 5712 5710 5707 5707 5704 5702 5701 5697 5694 5691 5688 5685 5683 5681 5678 5678 5678 5677 5675 5674 5672 5670 5668 5665 5663 5659 5658 5658 5662 5660 5659 5659 5658 5662 5663 5662 5661